Weather History for KGRI - September, 2013

Change the Weather History Date:

Thursday, September 26, 2013

  Actual Average Record
Temperature  
Mean Temperature 77 °F 61 °F  
Max Temperature 91 °F 74 °F 94 °F (1990)
Min Temperature 63 °F 48 °F 30 °F (1984)
Degree Days  
Heating Degree Days 0 6  
Month to date heating degree days 14 78  
Since 1 July heating degree days 17 88  
Cooling Degree Days 12 2  
Month to date cooling degree days 174 104  
Year to date cooling degree days 1237 1018  
Growing Degree Days 27 (Base 50)    
Moisture  
Dew Point 56 °F    
Average Humidity 54    
Maximum Humidity 78    
Minimum Humidity 29    
Precipitation  
Precipitation 0.00 in 0.07 in 1.03 in (1927)
Month to date precipitation 1.79 1.96  
Year to date precipitation 21.20 22.73  
Snow  
Snow 0.00 in 0.10 in - ()
Month to date snowfall 0.0 0.1  
Since 1 July snowfall 0.0 0.1  
Since 1 September snowfall 0.0 0.1  
Snow Depth 0.00 in    
Sea Level Pressure  
Sea Level Pressure 29.64 in    
Wind  
Wind Speed 18 mph (SSE)    
Max Wind Speed 26 mph    
Max Gust Speed 35 mph    
Visibility 10 miles    
Events      
T = Trace of Precipitation, MM = Missing Value Source: NWS Daily Summary

Daily Weather History Graph

Daily Weather History Graph

Search for Another Location

Airport or City:

Trip Planner

Search our weather history database for the weather conditions in past years. The results will help you decide how hot, cold, wet, or windy it might be!

Date:

Astronomy

Sep. 26, 2013 Rise Set
Actual Time 7:25 AM CDT 7:23 PM CDT
Civil Twilight 6:57 AM CDT 7:50 PM CDT
Nautical Twilight 6:25 AM CDT 8:22 PM CDT
Astronomical Twilight 5:53 AM CDT 8:54 PM CDT
Moon No Moon Rise 2:20 PM CDT (9/26)
Length of Visible Light 12h 52m
Length of Day
11h 58m
Waning Gibbous, 54% of the Moon is Illuminated
Sep 26
Waning Gibbous
Sep 26
Last Quarter
Oct 4
New
Oct 11
First Quarter
Oct 18
Full

Hourly Weather History & Observations

Time (CDT) Temp. Heat Index Dew Point Humidity Pressure Visibility Wind Dir Wind Speed Gust Speed Precip Events Conditions
12:53 AM 66.0 °F - 57.0 °F 73% 29.66 in 10.0 mi SSE 15.0 mph 27.6 mph N/A   Clear
1:53 AM 66.0 °F - 55.9 °F 70% 29.64 in 10.0 mi SSE 16.1 mph 25.3 mph N/A   Clear
2:53 AM 64.9 °F - 55.9 °F 73% 29.63 in 10.0 mi SSE 19.6 mph 26.5 mph N/A   Clear
3:53 AM 64.0 °F - 55.9 °F 75% 29.62 in 10.0 mi SSE 23.0 mph 29.9 mph N/A   Clear
4:53 AM 63.0 °F - 55.9 °F 78% 29.62 in 10.0 mi SSE 20.7 mph 27.6 mph N/A   Clear
5:53 AM 63.0 °F - 55.9 °F 78% 29.62 in 10.0 mi SSE 17.3 mph 26.5 mph N/A   Clear
6:53 AM 63.0 °F - 55.9 °F 78% 29.62 in 10.0 mi SSE 19.6 mph 29.9 mph N/A   Clear
7:53 AM 64.0 °F - 55.9 °F 75% 29.65 in 10.0 mi SSE 18.4 mph 26.5 mph N/A   Clear
8:53 AM 66.0 °F - 55.9 °F 70% 29.66 in 10.0 mi SSE 19.6 mph 25.3 mph N/A   Clear
9:53 AM 71.1 °F - 55.9 °F 59% 29.68 in 10.0 mi South 19.6 mph 27.6 mph N/A   Clear
10:53 AM 75.9 °F - 55.0 °F 48% 29.68 in 10.0 mi South 17.3 mph 29.9 mph N/A   Clear
11:53 AM 80.1 °F 80.1 °F 55.0 °F 42% 29.67 in 10.0 mi South 17.3 mph 25.3 mph N/A   Clear
12:53 PM 82.0 °F 81.4 °F 55.0 °F 39% 29.66 in 10.0 mi SSE 16.1 mph 25.3 mph N/A   Clear
1:53 PM 84.9 °F 83.7 °F 55.9 °F 37% 29.65 in 10.0 mi SSE 20.7 mph - N/A   Clear
2:53 PM 88.0 °F 86.5 °F 55.9 °F 34% 29.62 in 10.0 mi SSE 17.3 mph 25.3 mph N/A   Clear
3:53 PM 90.0 °F 87.9 °F 55.0 °F 30% 29.61 in 10.0 mi SSE 21.9 mph 29.9 mph N/A   Clear
4:53 PM 91.0 °F 88.9 °F 55.0 °F 29% 29.60 in 10.0 mi SSE 16.1 mph 34.5 mph N/A   Clear
5:53 PM 90.0 °F 87.7 °F 54.0 °F 29% 29.61 in 10.0 mi South 21.9 mph 33.4 mph N/A   Clear
6:53 PM 87.1 °F 85.1 °F 54.0 °F 32% 29.63 in 10.0 mi SSE 11.5 mph - N/A   Clear
7:53 PM 82.0 °F 81.6 °F 55.9 °F 41% 29.64 in 10.0 mi SE 12.7 mph - N/A   Clear
8:53 PM 79.0 °F - 57.9 °F 48% 29.65 in 10.0 mi SE 16.1 mph 21.9 mph N/A   Clear
9:53 PM 77.0 °F - 60.1 °F 56% 29.66 in 10.0 mi SE 15.0 mph 23.0 mph N/A   Clear
10:53 PM 75.9 °F - 61.0 °F 60% 29.67 in 10.0 mi SSE 17.3 mph 27.6 mph N/A   Clear
11:53 PM 75.0 °F - 61.0 °F 62% 29.68 in 10.0 mi SSE 18.4 mph 27.6 mph N/A   Clear